STARLINK-30376, 57782

Orbit data source: Space-Track

STARLINK-30376, 57782 is a payload satellite in LEO that was launched on Mon, 04 Sep 2023 UTC via an FALCON 9 launch vehicle from the Air Force Eastern Test Range (AFETR). Payload-class satellites include a variety of spacecraft equipped with specific instruments for various scientific and technological missions. These include communications satellites like Starlink; space stations such as the ISS; scientific satellites like the Hubble; Earth observation satellites from companies like Planet Labs, Umbra, and HawkEye 360; GPS; miniature CubeSats for education and research; and military/defense satellites.

Loading next visibility...
Identifier
57782, 2023-134M
Orbit
LEO
Last TLE update
6 hours ago
Origin
Manufacturer
SpaceX/Seattle
Mission
Operational Commercial Communications
Bus & Motor
STARLINK V2M, Unknown motor
Mass
730 kg wet, ~700 kg dry
Launch date (UTC)
2023-09-04 (2 years ago)
Launch vehicle
FALCON 9
Launch site
Air Force Eastern Test Range (AFETR)
Object type
Payload
Rocket body
Debris
Shape & HBR
Box + 2 Pan, 29 m
Radar Cross Section
33.884 m², Large (>1 m²)

Expand to show TLE details & history

TLE from 6 hours ago
0 STARLINK-30376
1 57782U 23134M   25151.09416144 -.00000216  00000-0 -92027-6 0  9992
2 57782  43.0042 292.8747 0001398 267.3371  92.7311 15.02531561 96965
Epoch: 2025-05-31T02:15Z
TLE epoch observation values (Epoch: 2025-05-31T02:15:35.548Z)
Latitude
-0.00004°
Longitude
10.13706°
Altitude
558.918 km
Speed
7.584 km/s
True Right ascension
19h 31m 29s
True Declination
0° 00' 00"
Sunlit
Object was in full shadow at epoch
Visualization orbit readout
Latitude
7.66412°
Longitude
16.93059°
Altitude
558.408 km
Speed
7.585 km/s
Apparent Right ascension
22h 40m 55s
Apparent Declination
-44° 22' 41"
Sunlit
Object is in full shadow
Visualization observer readout
Local Sidereal Time
18:17:25
Azimuth
137.976° SSE
Elevation
-12.987°
Doppler factor
1
Orbital elements
Apogee altitude
561.987 km
Perigee altitude
560.046 km
Semi-major axis
6,939.153 km
Eccentricity
0.00014
Inclination
43.0042°
RAAN
292.8747°
Arg. of periapsis
267.3371°
True anomaly
Unknown
Mean anomaly
92.7311°
Eccentric anomaly
Unknown
Mean motion
3.75477 °/min
Orbital period
95.88 mins
BSTAR
-9.2027e-7
Loading maneuver chart data...
Loading SW <> Apogee altitude chart data...
Loading historical data...
Loading historical data...
Loading historical data...
Loading historical data...
Loading historical data...
Loading historical data...
Loading historical data...

STARLINK-30376 Visibility forecast

Observer location: undefined°, undefined°

Span
Click to sort rows by Start time (UTC) header in descending order
Start Az.
Max El. time (UTC)
Max El. Az.
Max El.
End time (UTC)
End Az.
5 mins2025-05-31 12:00:29.163Z188.832° SSW2025-05-31 12:03:29.163Z139.573° SSE19.339°2025-05-31 12:05:29.163Z105.117° ESE
7 mins2025-05-31 13:40:29.163Z243.712° WSW2025-05-31 13:43:29.163Z177.676° S44.381°2025-05-31 13:47:29.163Z73.192° E
7 mins2025-05-31 15:21:29.163Z282.429° WNW2025-05-31 15:24:29.163Z2.213° NNE39.61°2025-05-31 15:28:29.163Z75.843° E
7 mins2025-05-31 17:02:29.163Z290.8° WNW2025-05-31 17:05:29.163Z40.022° NE43.979°2025-05-31 17:09:29.163Z101.421° ESE
6 mins2025-05-31 18:43:29.163Z264.739° W2025-05-31 18:45:29.163Z222.786° SW28.947°2025-05-31 18:49:29.163Z147.215° SSE
|